Date,TemperatureHighF,TemperatureAvgF,TemperatureLowF,DewpointHighF,DewpointAvgF,DewpointLowF,HumidityHigh,HumidityAvg,HumidityLow,PressureMaxIn,PressureMinIn,WindSpeedMaxMPH,WindSpeedAvgMPH,GustSpeedMaxMPH,PrecipitationSumIn
2013-8-1,98.3,84.7,74.5,79.7,70.3,56.2,76,63,49,30.05,29.92,0,0,0,0.00
2013-8-2,102.5,86.5,76.4,79.7,71.2,56.9,76,61,43,30.02,29.93,0,0,0,0.00
2013-8-3,98.5,85.4,75.6,79.6,69.9,55.8,76,60,46,30.08,30.00,0,0,0,0.00
2013-8-4,100.2,81.5,74.1,79.9,60.6,-99.9,75,57,46,30.11,30.00,0,0,0,0.00
2013-8-5,97.3,83.3,73.8,80.7,65.7,44.8,74,57,28,30.08,29.95,0,0,0,0.07
2013-8-6,97.6,84.9,74.2,80.2,66.3,46.3,74,55,32,30.02,29.90,0,0,0,0.10
2013-8-7,101.5,85.1,74.4,79.1,65.4,45.3,73,53,31,30.00,29.88,0,0,0,0.03
2013-8-8,98.3,83.9,72.3,80.6,64.4,43.2,73,53,29,29.99,29.88,0,0,0,0.00
2013-8-9,100.6,83.5,73.6,80.5,64.8,43.1,73,55,31,30.01,29.91,0,0,0,0.00
2013-8-10,95.0,81.5,74.9,79.1,61.3,42.6,71,52,30,30.08,29.99,0,0,0,0.02
2013-8-11,91.7,79.4,72.0,78.8,57.9,40.7,71,50,28,30.11,30.04,0,0,0,0.02
2013-8-12,89.8,80.8,73.3,77.7,56.5,31.5,70,47,17,30.11,30.01,0,0,0,0.00
2013-8-13,100.3,83.9,74.9,82.2,57.7,28.3,71,44,16,30.06,29.92,0,0,0,0.00
2013-8-14,86.3,76.9,72.8,72.0,47.1,27.2,68,37,15,30.01,29.94,0,0,0,0.00
2013-8-15,91.5,76.8,67.4,75.7,49.5,23.3,69,42,16,30.04,29.93,0,0,0,0.00
2013-8-16,90.8,77.5,67.0,72.3,51.8,19.0,70,45,15,30.01,29.93,0,0,0,0.00
2013-8-17,91.1,77.4,64.9,73.7,58.5,30.5,70,53,27,30.00,29.92,0,0,0,0.00
2013-8-18,85.0,70.0,63.0,72.0,26.3,11.7,94,22,10,30.01,29.87,17,1,24,0.00
2013-8-19,86.0,80.7,72.0,75.0,74.1,70.0,94,80,67,30.06,29.99,9,4,0,0.65
2013-8-20,88.0,82.8,75.0,76.0,74.8,73.0,96,77,65,30.07,30.00,13,4,0,0.30
2013-8-23,82.0,82.0,82.0,72.0,72.0,72.0,71,71,71,29.94,29.94,5,5,0,0.00
2013-8-26,88.0,77.3,76.0,74.0,73.8,72.0,94,89,59,30.12,30.10,13,0,24,1.29
2013-8-27,82.0,82.0,82.0,73.0,73.0,73.0,74,74,74,30.04,30.04,0,0,0,0.00
2013-8-28,85.0,79.7,74.0,73.0,70.8,66.0,91,76,56,30.08,30.01,5,1,5,0.00
2013-8-29,89.0,88.9,88.0,70.0,69.9,69.0,53,53,53,30.02,30.00,5,1,0,0.00